| time (UTC) | temp C | wind direction | speed KPH | gust KPH | rain 1hr cm | rain 24hr cm | rain mn cm | humidity % | barometer mb |
| 20260904043811 | 20 | 270 | 3.2 | 6.4 | 0.03 | 0.03 | 0.03 | 91 | 1013.3 |
| 20260904042740 | 20 | 248 | 4.8 | 9.7 | 0.00 | 0.00 | 0.00 | 91 | 1013.5 |
| 20260904041740 | 20 | 225 | 6.4 | 12.9 | 0.00 | 0.00 | 0.00 | 91 | 1013.4 |
| 20260904040718 | 20 | 270 | 4.8 | 6.4 | 0.00 | 0.00 | 0.00 | 91 | 1013.5 |
| 20260904035740 | 20 | 248 | 8.0 | 12.9 | 0.00 | 0.00 | 0.00 | 91 | 1013.5 |
| 20260904034718 | 20 | 248 | 9.7 | 12.9 | 0.00 | 0.00 | 0.00 | 91 | 1013.5 |
| 20260904033809 | 20 | 225 | 11.3 | 14.5 | 0.00 | 0.00 | 0.00 | 90 | 1013.6 |
| 20260904032729 | 20 | 270 | 9.7 | 14.5 | 0.00 | 0.00 | 0.00 | 90 | 1013.6 |
| 20260904031718 | 20 | 225 | 11.3 | 17.7 | 0.00 | 0.00 | 0.00 | 90 | 1013.6 |
| 20260904030729 | 20 | 225 | 11.3 | 29.0 | 0.00 | 0.00 | 0.00 | 90 | 1013.8 |
| 20260904025719 | 20 | 270 | 11.3 | 20.9 | 0.00 | 0.00 | 0.00 | 90 | 1014.1 |
| 20260904024718 | 20 | 248 | 8.0 | 12.9 | 0.00 | 0.00 | 0.00 | 90 | 1014.1 |
| 20260904023719 | 20 | 225 | 8.0 | 14.5 | 0.00 | 0.00 | 0.00 | 90 | 1014.2 |
| 20260904022718 | 20 | 270 | 8.0 | 16.1 | 0.00 | 0.00 | 0.00 | 90 | 1014.2 |
| 20260904021718 | 20 | 225 | 12.9 | 20.9 | 0.00 | 0.00 | 0.00 | 90 | 1014.3 |
| 20260904020718 | 20 | 225 | 11.3 | 17.7 | 0.00 | 0.00 | 0.00 | 90 | 1014.4 |
| 20260904015750 | 20 | 248 | 9.7 | 20.9 | 0.00 | 0.00 | 0.00 | 90 | 1014.4 |
| 20260904014750 | 20 | 248 | 8.0 | 19.3 | 0.00 | 0.00 | 0.00 | 90 | 1014.7 |
| 20260904013751 | 20 | 248 | 8.0 | 17.7 | 0.00 | 0.00 | 0.00 | 90 | 1014.8 |
| 20260904012752 | 20 | 248 | 8.0 | 14.5 | 0.00 | 0.00 | 0.00 | 90 | 1014.9 |
| 20260904011729 | 20 | 225 | 3.2 | 6.4 | 0.00 | 0.00 | 0.00 | 90 | 1015.0 |
| 20260904010718 | 20 | 270 | 4.8 | 6.4 | 0.00 | 0.00 | 0.00 | 89 | 1015.2 |
| 20260904005729 | 20 | 270 | 8.0 | 14.5 | 0.00 | 0.00 | 0.00 | 89 | 1015.3 |
| 20260904004701 | 20 | 248 | 8.0 | 9.7 | 0.00 | 0.00 | 0.00 | 89 | 1015.3 |
| 20260904003720 | 20 | 270 | 9.7 | 17.7 | 0.00 | 0.00 | 0.00 | 89 | 1015.5 |
| 20260904002720 | 20 | 248 | 8.0 | 11.3 | 0.00 | 0.00 | 0.00 | 89 | 1015.7 |
| 20260904001740 | 20 | 225 | 8.0 | 16.1 | 0.00 | 0.00 | 0.00 | 89 | 1015.7 |
| 20260904000742 | 20 | 248 | 8.0 | 14.5 | 0.00 | 0.00 | 0.00 | 89 | 1015.7 |
| 20260903235718 | 20 | 225 | 8.0 | 12.9 | 0.00 | 0.00 | 0.00 | 89 | 1015.7 |
| 20260903234740 | 20 | 248 | 8.0 | 12.9 | 0.00 | 0.00 | 0.00 | 89 | 1015.7 |
| 20260903233729 | 20 | 248 | 9.7 | 16.1 | 0.00 | 0.00 | 0.00 | 89 | 1015.8 |
| 20260903232718 | 20 | 248 | 8.0 | 11.3 | 0.00 | 0.00 | 0.00 | 89 | 1015.9 |
| 20260903231739 | 20 | 248 | 9.7 | 20.9 | 0.00 | 0.00 | 0.00 | 89 | 1016.0 |
| 20260903230718 | 20 | 248 | 9.7 | 17.7 | 0.00 | 0.00 | 0.00 | 90 | 1016.0 |
| 20260903225719 | 20 | 180 | 8.0 | 14.5 | 0.00 | 0.00 | 0.00 | 90 | 1016.1 |
| 20260903224718 | 20 | 270 | 4.8 | 9.7 | 0.00 | 0.00 | 0.00 | 90 | 1016.3 |
| 20260903223719 | 21 | 293 | 6.4 | 9.7 | 0.00 | 0.00 | 0.00 | 90 | 1016.4 |
| 20260903222719 | 21 | 248 | 4.8 | 6.4 | 0.00 | 0.00 | 0.00 | 89 | 1016.5 |
| 20260903221718 | 21 | 270 | 6.4 | 11.3 | 0.00 | 0.00 | 0.00 | 89 | 1016.6 |
| 20260903220729 | 21 | 225 | 9.7 | 14.5 | 0.00 | 0.00 | 0.00 | 89 | 1016.7 |
| 20260903215718 | 21 | 270 | 4.8 | 9.7 | 0.00 | 0.00 | 0.00 | 89 | 1016.6 |
| 20260903214718 | 21 | 248 | 6.4 | 12.9 | 0.00 | 0.00 | 0.00 | 89 | 1016.6 |
| 20260903213811 | 21 | 225 | 6.4 | 9.7 | 0.00 | 0.00 | 0.00 | 89 | 1016.7 |
| 20260903212718 | 21 | 270 | 4.8 | 9.7 | 0.00 | 0.00 | 0.00 | 89 | 1016.7 |
| 20260903211718 | 21 | 225 | 4.8 | 8.0 | 0.00 | 0.00 | 0.00 | 88 | 1016.6 |
| 20260903210718 | 21 | 248 | 11.3 | 17.7 | 0.00 | 0.00 | 0.00 | 89 | 1016.6 |
| 20260903205718 | 21 | 270 | 8.0 | 12.9 | 0.00 | 0.00 | 0.00 | 89 | 1016.9 |
| 20260903204729 | 21 | 248 | 9.7 | 19.3 | 0.00 | 0.00 | 0.00 | 89 | 1016.9 |
| 20260903203729 | 21 | 270 | 6.4 | 9.7 | 0.00 | 0.00 | 0.00 | 89 | 1017.0 |
| 20260903202752 | 21 | 248 | 11.3 | 19.3 | 0.00 | 0.00 | 0.00 | 89 | 1017.2 |
| 20260903201718 | 21 | 270 | 4.8 | 8.0 | 0.00 | 0.00 | 0.00 | 90 | 1017.4 |
| 20260903200802 | 21 | 225 | 12.9 | 22.5 | 0.00 | 0.00 | 0.00 | 90 | 1017.4 |
| 20260903195718 | 21 | 248 | 12.9 | 22.5 | 0.00 | 0.00 | 0.00 | 90 | 1017.4 |
| 20260903194720 | 21 | 248 | 9.7 | 14.5 | 0.00 | 0.00 | 0.00 | 90 | 1017.3 |
| 20260903193720 | 21 | 180 | 12.9 | 16.1 | 0.00 | 0.00 | 0.00 | 90 | 1017.2 |
| 20260903192720 | 21 | 248 | 12.9 | 20.9 | 0.00 | 0.00 | 0.00 | 89 | 1017.3 |
| 20260903191801 | 21 | 248 | 6.4 | 9.7 | 0.00 | 0.00 | 0.00 | 89 | 1017.3 |
| 20260903190720 | 21 | 203 | 8.0 | 17.7 | 0.00 | 0.00 | 0.00 | 89 | 1017.4 |
| 20260903185731 | 21 | 248 | 9.7 | 14.5 | 0.00 | 0.00 | 0.00 | 89 | 1017.4 |
| 20260903184729 | 21 | 248 | 11.3 | 19.3 | 0.00 | 0.00 | 0.00 | 88 | 1017.1 |
| 20260903183720 | 21 | 248 | 8.0 | 14.5 | 0.00 | 0.00 | 0.00 | 88 | 1017.1 |
| 20260903182742 | 21 | 248 | 6.4 | 12.9 | 0.00 | 0.00 | 0.00 | 88 | 1017.1 |
| 20260903181720 | 21 | 225 | 9.7 | 16.1 | 0.00 | 0.00 | 0.00 | 88 | 1017.0 |
| 20260903180720 | 21 | 248 | 12.9 | 25.7 | 0.00 | 0.00 | 0.00 | 88 | 1017.1 |
| 20260903175730 | 21 | 248 | 11.3 | 19.3 | 0.00 | 0.00 | 0.00 | 88 | 1017.3 |
| 20260903174730 | 21 | 203 | 8.0 | 12.9 | 0.00 | 0.00 | 0.00 | 88 | 1017.2 |
| 20260903173916 | 21 | 248 | 11.3 | 17.7 | 0.00 | 0.00 | 0.00 | 88 | 1017.5 |
| 20260903173320 | 21 | 248 | 14.5 | 19.3 | 0.00 | 0.00 | 0.00 | 88 | 1017.3 |
| 20260903172320 | 21 | 225 | 6.4 | 11.3 | 0.00 | 0.00 | 0.00 | 88 | 1017.4 |
| 20260903171547 | 21 | 225 | 14.5 | 22.5 | 0.00 | 0.00 | 0.00 | 88 | 1017.3 |
| 20260903170620 | 21 | 248 | 12.9 | 24.1 | 0.00 | 0.00 | 0.00 | 87 | 1017.4 |
| 20260903165630 | 21 | 270 | 9.7 | 14.5 | 0.00 | 0.00 | 0.00 | 87 | 1017.6 |
| 20260903164712 | 21 | 248 | 11.3 | 22.5 | 0.00 | 0.00 | 0.00 | 86 | 1017.6 |
| 20260903163620 | 21 | 225 | 6.4 | 12.9 | 0.00 | 0.00 | 0.00 | 86 | 1017.6 |
| 20260903162620 | 21 | 270 | 11.3 | 20.9 | 0.00 | 0.00 | 0.00 | 86 | 1017.6 |
| 20260903161631 | 21 | 180 | 9.7 | 16.1 | 0.00 | 0.00 | 0.00 | 86 | 1017.8 |
| 20260903160620 | 21 | 225 | 16.1 | 33.8 | 0.00 | 0.00 | 0.00 | 85 | 1017.8 |
| 20260903155721 | 21 | 270 | 9.7 | 14.5 | 0.00 | 0.00 | 0.00 | 85 | 1017.9 |
| 20260903154619 | 21 | 248 | 11.3 | 14.5 | 0.00 | 0.00 | 0.00 | 84 | 1017.9 |
| 20260903153817 | 22 | 270 | 8.0 | 19.3 | 0.00 | 0.00 | 0.00 | 84 | 1017.8 |
| 20260903152820 | 22 | 225 | 14.5 | 22.5 | 0.00 | 0.00 | 0.00 | 83 | 1017.7 |
| 20260903151820 | 22 | 225 | 11.3 | 19.3 | 0.00 | 0.00 | 0.00 | 84 | 1017.8 |
| 20260903150820 | 22 | 248 | 8.0 | 12.9 | 0.00 | 0.00 | 0.00 | 83 | 1017.9 |
| 20260903145852 | 22 | 248 | 9.7 | 19.3 | 0.00 | 0.00 | 0.00 | 83 | 1017.8 |
| 20260903144819 | 22 | 248 | 9.7 | 16.1 | 0.00 | 0.00 | 0.00 | 83 | 1017.9 |
| 20260903143819 | 22 | 270 | 9.7 | 14.5 | 0.00 | 0.00 | 0.00 | 81 | 1018.0 |
| 20260903142819 | 22 | 270 | 9.7 | 16.1 | 0.00 | 0.00 | 0.00 | 80 | 1018.1 |
| 20260903141851 | 22 | 270 | 8.0 | 11.3 | 0.00 | 0.00 | 0.00 | 81 | 1018.1 |
| 20260903140850 | 22 | 270 | 8.0 | 14.5 | 0.00 | 0.00 | 0.00 | 81 | 1018.0 |
| 20260903135819 | 22 | 270 | 11.3 | 20.9 | 0.00 | 0.00 | 0.00 | 83 | 1018.1 |
| 20260903134830 | 22 | 270 | 11.3 | 19.3 | 0.00 | 0.00 | 0.00 | 84 | 1018.2 |
| 20260903133830 | 22 | 248 | 6.4 | 14.5 | 0.00 | 0.00 | 0.00 | 84 | 1018.3 |
| 20260903132819 | 22 | 248 | 8.0 | 11.3 | 0.00 | 0.00 | 0.00 | 84 | 1018.2 |
| 20260903131910 | 22 | 248 | 9.7 | 14.5 | 0.00 | 0.00 | 0.00 | 83 | 1018.2 |
| 20260903130820 | 22 | 270 | 9.7 | 14.5 | 0.00 | 0.00 | 0.00 | 83 | 1018.3 |
| 20260903125900 | 22 | 248 | 9.7 | 16.1 | 0.00 | 0.00 | 0.00 | 83 | 1018.2 |
| 20260903124820 | 22 | 270 | 11.3 | 29.0 | 0.00 | 0.00 | 0.00 | 83 | 1018.2 |
| 20260903123850 | 22 | 293 | 8.0 | 14.5 | 0.00 | 0.00 | 0.00 | 83 | 1018.0 |
| 20260903122852 | 22 | 270 | 9.7 | 20.9 | 0.00 | 0.00 | 0.00 | 82 | 1018.1 |
| 20260903121820 | 22 | 270 | 8.0 | 14.5 | 0.00 | 0.00 | 0.00 | 81 | 1018.2 |
| 20260903120841 | 22 | 248 | 11.3 | 22.5 | 0.00 | 0.00 | 0.00 | 81 | 1018.2 |
| 20260903115820 | 22 | 270 | 6.4 | 11.3 | 0.00 | 0.00 | 0.00 | 81 | 1018.3 |
| 20260903114850 | 22 | 270 | 9.7 | 19.3 | 0.00 | 0.00 | 0.00 | 81 | 1018.3 |
| 20260903113830 | 22 | 248 | 9.7 | 16.1 | 0.00 | 0.00 | 0.00 | 82 | 1018.2 |
| 20260903112840 | 22 | 248 | 8.0 | 14.5 | 0.00 | 0.00 | 0.00 | 83 | 1018.2 |
| 20260903111850 | 22 | 248 | 11.3 | 20.9 | 0.00 | 0.00 | 0.00 | 84 | 1018.1 |
| 20260903110830 | 22 | 270 | 8.0 | 11.3 | 0.00 | 0.00 | 0.00 | 84 | 1018.2 |
| 20260903105820 | 22 | 270 | 11.3 | 16.1 | 0.00 | 0.00 | 0.00 | 84 | 1018.1 |
| 20260903104830 | 21 | 270 | 8.0 | 14.5 | 0.00 | 0.00 | 0.00 | 86 | 1018.2 |
| 20260903103830 | 21 | 270 | 4.8 | 9.7 | 0.00 | 0.00 | 0.00 | 88 | 1018.2 |
| 20260903102830 | 21 | 248 | 4.8 | 8.0 | 0.00 | 0.00 | 0.00 | 88 | 1018.4 |
| 20260903101819 | 21 | 270 | 6.4 | 12.9 | 0.00 | 0.00 | 0.00 | 89 | 1018.4 |
| 20260903100830 | 20 | 225 | 9.7 | 16.1 | 0.00 | 0.00 | 0.00 | 89 | 1018.3 |
| 20260903095819 | 20 | 270 | 4.8 | 9.7 | 0.00 | 0.00 | 0.00 | 90 | 1018.2 |
| 20260903094839 | 20 | 225 | 9.7 | 20.9 | 0.00 | 0.00 | 0.00 | 89 | 1018.1 |
| 20260903093819 | 20 | 270 | 9.7 | 17.7 | 0.00 | 0.00 | 0.00 | 90 | 1018.1 |
| 20260903092840 | 20 | 225 | 14.5 | 19.3 | 0.00 | 0.03 | 0.00 | 90 | 1017.7 |
| 20260903091830 | 20 | 225 | 6.4 | 9.7 | 0.00 | 0.03 | 0.00 | 91 | 1018.0 |
| 20260903090819 | 20 | 270 | 6.4 | 12.9 | 0.00 | 0.03 | 0.00 | 91 | 1017.9 |
| 20260903085830 | 20 | 225 | 9.7 | 14.5 | 0.00 | 0.03 | 0.00 | 91 | 1017.8 |
| 20260903084819 | 20 | 248 | 9.7 | 19.3 | 0.00 | 0.03 | 0.00 | 91 | 1017.7 |
| 20260903083819 | 20 | 270 | 9.7 | 17.7 | 0.00 | 0.03 | 0.00 | 91 | 1017.7 |
| 20260903082819 | 20 | 225 | 4.8 | 6.4 | 0.00 | 0.03 | 0.00 | 91 | 1017.5 |
| 20260903081819 | 19 | 270 | 6.4 | 11.3 | 0.00 | 0.03 | 0.00 | 90 | 1017.6 |
| 20260903080820 | 19 | 248 | 12.9 | 22.5 | 0.00 | 0.03 | 0.00 | 91 | 1017.9 |
| 20260903075839 | 19 | 248 | 6.4 | 12.9 | 0.00 | 0.03 | 0.00 | 90 | 1017.7 |
| 20260903074830 | 19 | 293 | 3.2 | 8.0 | 0.00 | 0.03 | 0.00 | 90 | 1017.7 |
| 20260903073819 | 19 | 248 | 6.4 | 12.9 | 0.00 | 0.03 | 0.00 | 90 | 1017.6 |
| 20260903072819 | 19 | 270 | 6.4 | 11.3 | 0.00 | 0.03 | 0.00 | 90 | 1017.5 |
| 20260903071830 | 19 | 248 | 6.4 | 11.3 | 0.00 | 0.03 | 0.00 | 89 | 1017.5 |
| 20260903070830 | 19 | 270 | 9.7 | 19.3 | 0.00 | 0.03 | 0.00 | 89 | 1017.5 |
| 20260903065859 | 19 | 270 | 6.4 | 17.7 | 0.00 | 0.03 | 0.00 | 89 | 1017.3 |
| 20260903064819 | 19 | 270 | 4.8 | 9.7 | 0.00 | 0.03 | 0.00 | 89 | 1017.2 |
| 20260903063819 | 19 | 293 | 6.4 | 9.7 | 0.00 | 0.03 | 0.00 | 89 | 1016.9 |
| 20260903062819 | 19 | 270 | 11.3 | 19.3 | 0.00 | 0.03 | 0.00 | 89 | 1016.8 |
| 20260903061819 | 19 | 248 | 6.4 | 11.3 | 0.00 | 0.03 | 0.00 | 88 | 1017.0 |
| 20260903060830 | 19 | 270 | 6.4 | 12.9 | 0.00 | 0.03 | 0.00 | 88 | 1016.6 |
| 20260903055830 | 19 | 293 | 11.3 | 20.9 | 0.00 | 0.03 | 0.00 | 88 | 1016.3 |
| 20260903054819 | 19 | 270 | 9.7 | 33.8 | 0.00 | 0.03 | 0.00 | 88 | 1016.1 |
| 20260903053849 | 19 | 270 | 8.0 | 16.1 | 0.00 | 0.03 | 0.00 | 88 | 1016.3 |
| 20260903052819 | 19 | 225 | 11.3 | 27.4 | 0.00 | 0.03 | 0.00 | 87 | 1016.4 |
| 20260903051819 | 19 | 248 | 8.0 | 12.9 | 0.00 | 0.03 | 0.00 | 87 | 1016.4 |
| 20260903050819 | 19 | 270 | 4.8 | 9.7 | 0.00 | 0.03 | 0.00 | 87 | 1016.3 |
| 20260903045819 | 19 | 270 | 4.8 | 9.7 | 0.00 | 0.03 | 0.00 | 86 | 1016.4 |
| 20260903044819 | 18 | 270 | 6.4 | 9.7 | 0.00 | 0.03 | 0.00 | 87 | 1016.4 |